Location: Prairie State College
(41.5244°N, 87.6382°W)
Time: 08:33:36
(UTC-05:00)

Amateur Radio Satellites - All Passes

Search period start: 25 March 2017 08:03
Search period end: 26 March 2017 08:03
Location: Prairie State College, 41.5244°N, 87.6382°W

Satellite Date Start Highest point End Downlink Frequencies (MHz)
Time Altitude Azimuth
KAITUO 1B 25 Mar 08:05:55 08:08:46 21° 291° (WNW) 08:11:36 145.475/437.950
XW-2C 25 Mar 08:11:48 08:14:06 16° 294° (WNW) 08:16:23 145.795 - 145.815
BEESAT 3 25 Mar 08:13:09 08:17:10 68° 240° (WSW) 08:21:07 437.485
BEESAT 2 25 Mar 08:25:06 08:29:09 64° 55° (NE) 08:33:08 435.950
UWE-3 25 Mar 08:25:27 08:28:41 20° 93° (E) 08:31:51 435.000/436.395/437.385
STRAND 1 25 Mar 08:29:45 08:33:49 23° 266° (W) 08:37:54 437.568
XW-2A 25 Mar 08:37:13 08:40:30 46° 286° (WNW) 08:43:43 145.665 - 145.685
CUTE-I 25 Mar 08:54:34 08:57:38 16° 300° (WNW) 09:00:42 437.470
CUBEBUG 2 25 Mar 08:54:57 08:59:24 74° 102° (ESE) 09:03:40 437.445
YUBILEINY 25 Mar 08:59:13 09:07:47 57° 283° (WNW) 09:16:22 435.215
Oscar 11 25 Mar 09:04:58 09:08:33 25° 95° (E) 09:12:06 .
NO-84 25 Mar 09:05:15 09:07:13 17° 333° (NNW) 09:09:13 435.350 FM
ZACube-1 25 Mar 09:09:18 09:13:13 35° 97° (E) 09:17:02 437.345
AAUSAT CUBESAT 2 25 Mar 09:13:58 09:18:08 88° 109° (ESE) 09:22:17 437.432
SEEDS 25 Mar 09:25:14 09:29:00 33° 289° (WNW) 09:32:47 437.485
CUTE 1.7 + AOD 2 25 Mar 09:29:38 09:32:49 21° 293° (WNW) 09:35:59 437.475
HO-68 25 Mar 09:32:38 09:39:21 45° 295° (WNW) 09:46:04 435.675
PRISM 25 Mar 09:32:42 09:36:44 78° 75° (ENE) 09:40:50 437.425
AO-73 25 Mar 09:38:26 09:42:40 71° 102° (ESE) 09:46:47 145.935
FO-29 25 Mar 09:39:51 09:47:00 41° 67° (ENE) 09:53:48 435.910
TIGRISAT 25 Mar 09:43:15 09:47:44 46° 72° (ENE) 09:52:12 435.000
UNISAT 6 25 Mar 09:52:46 09:57:25 62° 74° (ENE) 10:02:02 437.425
UWE-3 25 Mar 10:01:19 10:05:14 33° 290° (WNW) 10:09:02 435.000/436.395/437.385
BEESAT 2 25 Mar 10:04:57 10:06:22 12° 252° (WSW) 10:07:47 435.950
PCSat 25 Mar 10:07:01 10:12:20 63° 115° (ESE) 10:17:42 145.827
CUBEBUG 2 25 Mar 10:33:57 10:35:20 11° 299° (WNW) 10:36:42 437.445
NANOSAT C BR1 25 Mar 10:39:49 10:42:15 15° 64° (ENE) 10:44:41 145.865
Oscar 11 25 Mar 10:40:57 10:44:38 28° 291° (WNW) 10:48:18 .
EO-79 25 Mar 10:42:58 10:45:49 18° 65° (ENE) 10:48:41 145.935-145.965
ZACube-1 25 Mar 10:46:11 10:49:15 20° 294° (WNW) 10:52:16 437.345
DELFI C3 25 Mar 10:46:53 10:50:52 72° 285° (WNW) 10:54:50 145.870
YUBILEINY 25 Mar 11:04:59 11:06:50 11° 306° (NW) 11:08:41 435.215
AIST 2D 25 Mar 11:08:43 11:12:09 51° 74° (ENE) 11:15:37 435.315
POLYITAN 1 25 Mar 11:09:28 11:13:18 33° 70° (ENE) 11:17:11 437.675
ESTCUBE 1 25 Mar 11:11:13 11:13:24 13° 91° (E) 11:15:34 437.505/2401.250
QB50P2 25 Mar 11:13:50 11:17:49 40° 71° (ENE) 11:21:50 145.880/145.840
LO-87 25 Mar 11:14:21 11:17:23 24° 95° (E) 11:20:24 145.935 - 145.965
AO-73 25 Mar 11:17:14 11:18:16 11° 299° (WNW) 11:19:18 145.935
TIGRISAT 25 Mar 11:21:21 11:24:36 18° 268° (W) 11:27:52 435.000
FO-29 25 Mar 11:24:28 11:31:52 45° 263° (W) 11:38:58 435.910
DUCHIFAT 1 25 Mar 11:28:11 11:32:14 43° 72° (ENE) 11:36:17 145.980
UNISAT 6 25 Mar 11:32:09 11:34:29 14° 270° (W) 11:36:50 437.425
BUGSAT 1 25 Mar 11:50:37 11:54:10 26° 68° (ENE) 11:57:44 437.445
PCSat 25 Mar 11:51:59 11:56:11 22° 315° (NW) 12:00:24 145.827
Oscar 19 25 Mar 11:54:47 11:56:44 12° 58° (ENE) 11:58:42 437.125/150
NANOSAT C BR1 25 Mar 12:13:23 12:17:32 51° 260° (W) 12:21:42 145.865
RS-15 25 Mar 12:14:29 12:25:15 42° 107° (ESE) 12:36:17 29.354- 29.394
EO-79 25 Mar 12:17:11 12:21:14 42° 261° (W) 12:25:20 145.935-145.965
50 SAT 25 Mar 12:19:49 12:20:28 10° 91° (E) 12:21:06 437.505
VELOX 1 25 Mar 12:28:37 12:32:25 27° 96° (E) 12:36:13 145.980
POLYITAN 1 25 Mar 12:45:50 12:49:08 21° 266° (W) 12:52:27 437.675
ESTCUBE 1 25 Mar 12:46:07 12:50:33 59° 286° (WNW) 12:54:59 437.505/2401.250
LO-87 25 Mar 12:47:55 12:50:43 21° 291° (WNW) 12:53:30 145.935 - 145.965
QB50P2 25 Mar 12:50:51 12:53:46 18° 267° (W) 12:56:42 145.880/145.840
UKube-1 25 Mar 12:54:22 12:56:45 14° 92° (E) 12:59:06 .
DUCHIFAT 1 25 Mar 13:05:27 13:08:06 16° 268° (W) 13:10:46 145.980
AO-7 25 Mar 13:13:03 13:17:27 16° 46° (NE) 13:21:50 .
SPROUT 25 Mar 13:22:52 13:27:11 85° 283° (WNW) 13:31:27 437.525
BUGSAT 1 25 Mar 13:25:51 13:29:26 26° 264° (W) 13:33:03 437.445
Oscar 19 25 Mar 13:30:09 13:35:17 90° 264° (W) 13:40:26 437.125/150
Gurwin Techsat 1B 25 Mar 13:33:45 13:38:56 57° 72° (ENE) 13:44:10 435.225
ITAMSAT 1 25 Mar 13:39:00 13:40:44 12° 57° (ENE) 13:42:27 435.822/435.867
DX 1 25 Mar 13:45:54 13:50:19 77° 103° (ESE) 13:54:42 434.975-435.025
50 SAT 25 Mar 13:50:23 13:53:44 44° 287° (WNW) 13:57:06 437.505
NO-84 25 Mar 13:59:59 14:03:00 39° 37° (NE) 14:06:15 435.350 FM
VELOX 1 25 Mar 14:04:59 14:08:49 28° 292° (WNW) 14:12:38 145.980
RS-15 25 Mar 14:25:14 14:37:11 64° 310° (NW) 14:49:32 29.354- 29.394
UKube-1 25 Mar 14:28:51 14:33:03 51° 288° (WNW) 14:37:14 .
AO-7 25 Mar 15:00:27 15:08:39 65° 67° (ENE) 15:16:51 .
SO-50 25 Mar 15:02:58 15:07:26 48° 118° (ESE) 15:11:52 436.795
ITAMSAT 1 25 Mar 15:14:07 15:19:21 83° 75° (ENE) 15:24:37 435.822/435.867
Gurwin Techsat 1B 25 Mar 15:15:38 15:19:14 18° 268° (W) 15:22:51 435.225
DX 1 25 Mar 15:24:35 15:25:51 11° 300° (WNW) 15:27:08 434.975-435.025
NO-84 25 Mar 15:37:49 15:40:26 21° 230° (SW) 15:43:12 435.350 FM
BEESAT 25 Mar 15:40:49 15:45:33 65° 102° (ESE) 15:50:16 436.000
ITUPSAT 1 25 Mar 15:56:11 16:00:58 89° 297° (WNW) 16:05:44 437.325
MOZHAYETS 4 25 Mar 16:08:46 16:13:15 54° 100° (E) 16:17:42
O/OREOS (USA 219) 25 Mar 16:09:06 16:10:42 12° 97° (E) 16:12:18 437.305
STARS 25 Mar 16:41:50 16:42:21 10° 89° (E) 16:42:51 437.465
RS-15 25 Mar 16:42:48 16:52:51 28° 340° (NNW) 17:02:58 29.354- 29.394
SO-50 25 Mar 16:44:24 16:48:07 23° 316° (NW) 16:51:49 436.795
DOVE 4 25 Mar 16:52:56 16:56:03 18° 63° (ENE) 16:59:19 437.250
AO-7 25 Mar 16:55:03 17:01:54 28° 265° (W) 17:08:48 .
CUTE-I 25 Mar 16:57:18 17:00:42 17° 61° (ENE) 17:04:06 437.470
ITAMSAT 1 25 Mar 16:57:38 16:59:25 12° 271° (W) 17:01:13 435.822/435.867
CUBESAT XI-V 25 Mar 16:57:55 17:02:00 30° 96° (E) 17:06:05 437.345
XW-2D 25 Mar 17:03:45 17:05:31 13° 65° (ENE) 17:07:17 145.860 - 145.880
NUDT-PHONESAT 25 Mar 17:08:15 17:09:20 11° 64° (ENE) 17:10:25 437.300
XW-2B 25 Mar 17:09:16 17:11:23 15° 66° (ENE) 17:13:30 145.730 - 145.750
KAITUO 1B 25 Mar 17:13:20 17:15:05 13° 65° (ENE) 17:16:49 145.475/437.950
PCSat 25 Mar 17:13:58 17:15:19 11° 34° (NE) 17:16:40 145.827
YUBILEINY 25 Mar 17:14:33 17:19:07 15° 58° (ENE) 17:23:40 435.215
XW-2C 25 Mar 17:18:44 17:21:26 19° 68° (ENE) 17:24:08 145.795 - 145.815
BEESAT 25 Mar 17:20:11 17:22:46 15° 299° (WNW) 17:25:22 436.000
KKS-1 25 Mar 17:35:18 17:39:49 86° 285° (WNW) 17:44:17 437.445
ITUPSAT 1 25 Mar 17:36:57 17:38:02 11° 301° (WNW) 17:39:08 437.325
O/OREOS (USA 219) 25 Mar 17:44:58 17:49:27 67° 294° (WNW) 17:54:01 437.305
MOZHAYETS 4 25 Mar 17:47:13 17:49:58 16° 297° (WNW) 17:52:41
LilacSat-2 25 Mar 18:09:32 18:13:22 82° 78° (ENE) 18:17:13 437.200
XW-2F 25 Mar 18:10:14 18:14:02 77° 75° (ENE) 18:17:49 145.980 - 146.000
HO-68 25 Mar 18:14:31 18:20:20 28° 60° (ENE) 18:26:11 435.675
STARS 25 Mar 18:14:45 18:19:11 73° 285° (WNW) 18:23:34 437.465
DOVE 4 25 Mar 18:28:44 18:33:14 53° 261° (W) 18:38:04 437.250
CUTE-I 25 Mar 18:34:49 18:40:10 68° 258° (WSW) 18:45:33 437.470
CUBESAT XI-V 25 Mar 18:35:21 18:39:17 28° 292° (WNW) 18:43:14 437.345
XW-2D 25 Mar 18:35:38 18:39:18 46° 261° (W) 18:43:00 145.860 - 145.880
NUDT-PHONESAT 25 Mar 18:39:07 18:42:47 54° 260° (W) 18:46:28 437.300
XW-2B 25 Mar 18:41:38 18:45:14 40° 262° (W) 18:48:51 145.730 - 145.750
SEEDS 25 Mar 18:42:47 18:45:07 15° 64° (ENE) 18:47:27 437.485
KAITUO 1B 25 Mar 18:45:06 18:48:43 45° 261° (W) 18:52:19 145.475/437.950
CUTE 1.7 + AOD 2 25 Mar 18:46:19 18:49:43 24° 68° (ENE) 18:53:08 437.475
XW-2C 25 Mar 18:52:02 18:55:25 30° 263° (W) 18:58:49 145.795 - 145.815
PCSat 25 Mar 18:54:43 19:00:02 51° 56° (NE) 19:05:19 145.827
M-CUBED/EXP-1 PRIME 25 Mar 18:57:48 19:02:12 42° 103° (ESE) 19:06:37 437.505
RS-15 25 Mar 19:01:14 19:11:02 26° 15° (NNE) 19:20:40 29.354- 29.394
STRAND 1 25 Mar 19:01:34 19:04:08 14° 90° (E) 19:06:41 437.568
XW-2A 25 Mar 19:08:12 19:11:34 51° 75° (ENE) 19:14:57 145.665 - 145.685
YUBILEINY 25 Mar 19:08:54 19:17:38 74° 81° (E) 19:26:20 435.215
UWE-3 25 Mar 19:22:22 19:25:42 20° 66° (ENE) 19:29:01 435.000/436.395/437.385
CUBEBUG 2 25 Mar 19:52:11 19:56:52 62° 74° (ENE) 20:01:34 437.445
Oscar 11 25 Mar 20:00:09 20:03:21 21° 67° (ENE) 20:06:34 .
HO-68 25 Mar 20:00:34 20:07:36 60° 258° (WSW) 20:14:41 435.675
AAUSAT CUBESAT 2 25 Mar 20:03:50 20:07:49 55° 74° (ENE) 20:11:51 437.432
ZACube-1 25 Mar 20:04:47 20:08:46 31° 70° (ENE) 20:12:42 437.345
SEEDS 25 Mar 20:16:22 20:20:24 48° 261° (W) 20:24:27 437.485
CUTE 1.7 + AOD 2 25 Mar 20:21:47 20:25:26 28° 264° (W) 20:29:06 437.475
M-CUBED/EXP-1 PRIME 25 Mar 20:32:44 20:36:21 23° 299° (WNW) 20:40:00 437.505
AO-73 25 Mar 20:33:16 20:37:42 55° 74° (ENE) 20:42:05 145.935
STRAND 1 25 Mar 20:38:42 20:43:48 70° 286° (WNW) 20:48:52 437.568
PCSat 25 Mar 20:38:54 20:43:03 23° 253° (WSW) 20:47:11 145.827
AO-85 25 Mar 20:45:07 20:48:59 29° 115° (ESE) 20:52:39 145.980
UWE-3 25 Mar 20:57:22 21:01:49 44° 262° (W) 21:06:16 435.000/436.395/437.385
YUBILEINY 25 Mar 21:07:09 21:13:29 23° 280° (W) 21:19:51 435.215
ISS 25 Mar 21:07:34 21:10:40 43° 139° (SE) 21:13:48 437.550
Tancredo 1 25 Mar 21:12:22 21:15:27 55° 141° (SE) 21:18:35 437.200
RS-15 25 Mar 21:15:06 21:27:12 56° 47° (NE) 21:38:46 29.354- 29.394
PRISM 25 Mar 21:16:40 21:17:19 10° 90° (E) 21:17:58 437.425
CUBEBUG 2 25 Mar 21:31:22 21:33:51 14° 270° (W) 21:36:20 437.445
DELFI C3 25 Mar 21:32:05 21:35:56 62° 76° (ENE) 21:39:50 145.870
Oscar 11 25 Mar 21:35:17 21:39:15 35° 263° (W) 21:43:15 .
ZACube-1 25 Mar 21:41:11 21:45:00 26° 265° (W) 21:48:47 437.345
AAUSAT CUBESAT 2 25 Mar 21:42:12 21:43:38 12° 270° (W) 21:45:04 437.432
UNISAT 6 25 Mar 21:46:33 21:48:20 12° 89° (E) 21:50:05 437.425
LO-87 25 Mar 21:52:34 21:53:40 11° 64° (ENE) 21:54:45 145.935 - 145.965
BEESAT 3 25 Mar 22:04:04 22:06:46 18° 111° (ESE) 22:09:30 437.485
ESTCUBE 1 25 Mar 22:11:23 22:13:33 13° 62° (ENE) 22:15:42 437.505/2401.250
AO-73 25 Mar 22:11:48 22:14:14 14° 269° (W) 22:16:40 145.935
AO-85 25 Mar 22:25:30 22:29:19 29° 310° (NW) 22:32:58 145.980
FO-29 25 Mar 22:35:31 22:40:31 27° 92° (E) 22:45:05 435.910
ISS 25 Mar 22:44:22 22:47:15 28° 337° (NNW) 22:50:09 437.550
PRISM 25 Mar 22:48:52 22:53:00 65° 286° (WNW) 22:57:07 437.425
Tancredo 1 25 Mar 22:49:07 22:51:48 24° 339° (NNW) 22:54:28 437.200
TIGRISAT 25 Mar 23:11:06 23:15:34 83° 283° (WNW) 23:19:53 435.000
UNISAT 6 25 Mar 23:21:05 23:25:28 60° 286° (WNW) 23:29:43 437.425
LO-87 25 Mar 23:23:10 23:26:38 49° 260° (W) 23:30:11 145.935 - 145.965
VELOX 1 25 Mar 23:26:05 23:29:40 25° 67° (ENE) 23:33:16 145.980
RS-15 25 Mar 23:28:08 23:39:35 49° 251° (WSW) 23:50:33 29.354- 29.394
SO-50 25 Mar 23:34:04 23:38:24 44° 51° (NE) 23:42:41 436.795
BEESAT 3 25 Mar 23:40:21 23:44:03 39° 308° (NW) 23:47:50 437.485
ESTCUBE 1 25 Mar 23:45:22 23:49:48 64° 259° (W) 23:54:15 437.505/2401.250
UKube-1 25 Mar 23:49:34 23:51:41 13° 62° (ENE) 23:53:47 .
BEESAT 2 25 Mar 23:53:42 23:57:38 71° 304° (NW) 00:01:39 435.950
NANOSAT C BR1 25 Mar 23:57:54 00:01:21 24° 95° (E) 00:04:46 145.865
EO-79 26 Mar 00:01:45 00:05:27 29° 96° (E) 00:09:07 145.935-145.965
AIST 2D 26 Mar 00:06:44 00:10:12 63° 100° (E) 00:13:39 435.315
SPROUT 26 Mar 00:15:50 00:20:06 72° 76° (ENE) 00:24:25 437.525
FO-29 26 Mar 00:20:09 00:25:49 41° 293° (WNW) 00:30:56 435.910
ISS 26 Mar 00:22:38 00:24:31 14° 356° (N) 00:26:25 437.550
50 SAT 26 Mar 00:23:34 00:26:57 63° 75° (ENE) 00:30:24 437.505
Tancredo 1 26 Mar 00:27:04 00:28:47 13° 359° (N) 00:30:29 437.200
POLYITAN 1 26 Mar 00:29:16 00:33:28 60° 100° (E) 00:37:37 437.675
QB50P2 26 Mar 00:33:49 00:38:05 74° 102° (ESE) 00:42:17 145.880/145.840
DX 1 26 Mar 00:41:10 00:45:28 66° 74° (ENE) 00:49:48 434.975-435.025
DUCHIFAT 1 26 Mar 00:47:16 00:51:31 80° 104° (ESE) 00:55:41 145.980
VELOX 1 26 Mar 01:02:05 01:05:58 30° 263° (W) 01:09:54 145.980
BUGSAT 1 26 Mar 01:06:47 01:10:46 42° 99° (E) 01:14:41 437.445
SO-50 26 Mar 01:15:13 01:18:32 21° 249° (WSW) 01:21:52 436.795
UKube-1 26 Mar 01:22:57 01:27:12 60° 259° (WSW) 01:31:29 .
ITUPSAT 1 26 Mar 01:28:15 01:30:23 13° 60° (ENE) 01:32:31 437.325
NANOSAT C BR1 26 Mar 01:33:24 01:37:03 29° 291° (WNW) 01:40:39 145.865
BEESAT 2 26 Mar 01:35:33 01:36:10 10° 323° (NW) 01:36:47 435.950
EO-79 26 Mar 01:37:39 01:41:05 24° 292° (WNW) 01:44:29 145.935-145.965
Oscar 19 26 Mar 01:41:50 01:46:25 31° 96° (E) 01:50:59 437.125/150
Gurwin Techsat 1B 26 Mar 01:50:31 01:54:35 22° 93° (E) 01:58:38 435.225
ISS 26 Mar 01:59:25 02:01:56 20° 17° (NNE) 02:04:27 437.550
Tancredo 1 26 Mar 02:03:19 02:05:50 21° 19° (NNE) 02:08:21 437.200
POLYITAN 1 26 Mar 02:06:50 02:08:45 13° 297° (WNW) 02:10:38 437.675
QB50P2 26 Mar 02:12:15 02:13:15 11° 299° (WNW) 02:14:14 145.880/145.840
O/OREOS (USA 219) 26 Mar 02:16:01 02:19:52 25° 58° (ENE) 02:23:42 437.305
DX 1 26 Mar 02:20:55 02:22:05 11° 270° (W) 02:23:16 434.975-435.025
BUGSAT 1 26 Mar 02:43:04 02:45:47 17° 295° (WNW) 02:48:28 437.445
BEESAT 26 Mar 02:47:01 02:51:47 77° 75° (ENE) 02:56:35 436.000
ITUPSAT 1 26 Mar 03:02:46 03:07:34 77° 257° (WSW) 03:12:23 437.325
AO-7 26 Mar 03:03:26 03:08:59 19° 91° (E) 03:14:29 .
MOZHAYETS 4 26 Mar 03:10:26 03:14:54 52° 73° (ENE) 03:19:22
Oscar 19 26 Mar 03:21:07 03:25:41 32° 293° (WNW) 03:30:14 437.125/150
ITAMSAT 1 26 Mar 03:27:19 03:31:47 28° 96° (E) 03:36:13 435.822/435.867
Gurwin Techsat 1B 26 Mar 03:29:40 03:34:45 47° 290° (WNW) 03:39:49 435.225
ISS 26 Mar 03:35:29 03:38:48 84° 36° (NE) 03:42:06 437.550
STARS 26 Mar 03:38:44 03:39:43 11° 60° (ENE) 03:40:43 437.465
Tancredo 1 26 Mar 03:39:05 03:42:17 80° 219° (SW) 03:45:29 437.200
O/OREOS (USA 219) 26 Mar 03:55:10 03:59:19 34° 256° (WSW) 04:03:26 437.305
CUBESAT XI-V 26 Mar 04:01:22 04:05:20 29° 69° (ENE) 04:09:18 437.345
BEESAT 26 Mar 04:28:44 04:30:06 11° 271° (W) 04:31:27 436.000
KKS-1 26 Mar 04:33:02 04:37:29 88° 83° (E) 04:42:00 437.445
MOZHAYETS 4 26 Mar 04:49:37 04:52:21 15° 269° (W) 04:55:05
AO-7 26 Mar 04:54:20 05:02:40 87° 291° (WNW) 05:10:59 .
ITAMSAT 1 26 Mar 05:06:33 05:11:15 35° 292° (WNW) 05:15:56 435.822/435.867
STARS 26 Mar 05:10:57 05:15:23 82° 258° (WSW) 05:19:51 437.465
ISS 26 Mar 05:13:45 05:14:48 11° 231° (SW) 05:15:52 437.550
AO-85 26 Mar 05:15:52 05:19:10 25° 48° (NE) 05:22:31 145.980
CUBESAT XI-V 26 Mar 05:38:46 05:42:40 27° 265° (W) 05:46:34 437.345
M-CUBED/EXP-1 PRIME 26 Mar 05:44:05 05:47:35 45° 67° (ENE) 05:51:25 437.505
XW-2D 26 Mar 06:08:52 06:11:19 17° 93° (E) 06:13:46 145.860 - 145.880
NUDT-PHONESAT 26 Mar 06:10:57 06:12:46 13° 92° (E) 06:14:34 437.300
XW-2B 26 Mar 06:14:35 06:17:17 19° 94° (E) 06:19:58 145.730 - 145.750
STRAND 1 26 Mar 06:17:03 06:20:55 22° 64° (ENE) 06:24:48 437.568
KAITUO 1B 26 Mar 06:17:04 06:19:25 16° 93° (E) 06:21:46 145.475/437.950
YUBILEINY 26 Mar 06:18:03 06:22:47 16° 76° (ENE) 06:27:29 435.215
BEESAT 3 26 Mar 06:20:19 06:22:41 15° 42° (NE) 06:25:03 437.485
XW-2C 26 Mar 06:24:24 06:27:31 25° 95° (E) 06:30:38 145.795 - 145.815
DOVE 4 26 Mar 06:27:01 06:32:08 45° 98° (E) 06:37:08 437.250
BEESAT 2 26 Mar 06:36:16 06:36:42 10° 37° (NE) 06:37:10 435.950
AO-7 26 Mar 06:48:37 06:54:19 21° 309° (NW) 07:00:03 .
CUTE-I 26 Mar 06:51:47 06:56:58 48° 100° (E) 07:02:05 437.470
NO-84 26 Mar 06:55:52 06:58:33 36° 133° (SE) 07:01:11 435.350 FM
AO-85 26 Mar 06:56:05 06:59:32 29° 245° (WSW) 07:03:04 145.980
XW-2F 26 Mar 07:16:17 07:20:01 72° 283° (WNW) 07:23:43 145.980 - 146.000
LilacSat-2 26 Mar 07:16:45 07:20:30 65° 284° (WNW) 07:24:13 437.200
M-CUBED/EXP-1 PRIME 26 Mar 07:20:43 07:22:24 13° 265° (W) 07:24:08 437.505
HO-68 26 Mar 07:28:34 07:34:29 27° 94° (E) 07:40:21 435.675
XW-2D 26 Mar 07:42:15 07:45:35 31° 289° (WNW) 07:48:56 145.860 - 145.880
NUDT-PHONESAT 26 Mar 07:43:26 07:46:52 38° 287° (WNW) 07:50:17 437.300
CUBEBUG 2 26 Mar 07:45:12 07:46:57 12° 89° (E) 07:48:41 437.445
XW-2B 26 Mar 07:48:16 07:51:30 28° 290° (WNW) 07:54:43 145.730 - 145.750
KAITUO 1B 26 Mar 07:50:13 07:53:31 32° 289° (WNW) 07:56:49 145.475/437.950
